User: anonymous   Login
Location: Bishop�s Knoyle
(51.0728°N, 2.1714°W)
Time: 23:08:41
(UTC+00:00)
Language:

IRS-1A Rocket - Orbit

View from above orbital plane
View from above orbital plane
View from above satellite
View from above satellite

Ground track
Ground track

The orbit data is extracted from the following two-line orbital elements,

1 18961U 88021B   20337.39101721 -.00000146  00000-0 -65963-4 0  9999
2 18961  99.2299  19.6617 0055095   0.1854  10.3431 14.00786835672390
Epoch (UTC): 02 December 2020 09:23:03
Eccentricity: 0.0055095
inclination: 99.2299°
perigee height: 851 km
apogee height: 931 km
right ascension of ascending node: 19.6617°
argument of perigee: 0.1854°
revolutions per day: 14.00786835
mean anomaly at epoch: 10.3431°
orbit number at epoch: 67239

The dashed part of the orbit path shows where the satellite is in the earth's shadow,  

DLR